TimeCDT,TemperatureF,Dew PointF,Humidity,Sea Level PressureIn,VisibilityMPH,Wind Direction,Wind SpeedMPH,Gust SpeedMPH,PrecipitationIn,Events,Conditions,WindDirDegrees,DateUTC
12:51 AM,79.0,72.0,79,30.00,10.0,ENE,3.5,-,N/A,,Mostly Cloudy,70,2013-08-22 05:51:00
1:51 AM,78.1,72.0,81,30.00,10.0,East,4.6,-,N/A,,Mostly Cloudy,100,2013-08-22 06:51:00
2:51 AM,78.1,72.0,81,29.99,10.0,Calm,Calm,-,N/A,,Mostly Cloudy,0,2013-08-22 07:51:00
3:51 AM,79.0,73.0,82,29.99,10.0,Calm,Calm,-,N/A,,Mostly Cloudy,0,2013-08-22 08:51:00
4:51 AM,77.0,72.0,84,29.99,10.0,Calm,Calm,-,N/A,,Mostly Cloudy,0,2013-08-22 09:51:00
5:34 AM,78.8,73.4,83,30.05,10.0,Calm,Calm,-,N/A,,Mostly Cloudy,0,2013-08-22 10:34:00
5:51 AM,77.0,72.0,84,29.99,10.0,Calm,Calm,-,N/A,,Mostly Cloudy,0,2013-08-22 10:51:00
6:20 AM,77.0,71.6,83,30.06,10.0,Calm,Calm,-,N/A,,Mostly Cloudy,0,2013-08-22 11:20:00
6:51 AM,75.0,71.1,87,30.01,10.0,Calm,Calm,-,N/A,,Scattered Clouds,0,2013-08-22 11:51:00
7:09 AM,75.2,71.6,89,30.07,10.0,East,3.5,-,N/A,,Mostly Cloudy,100,2013-08-22 12:09:00
7:33 AM,75.2,71.6,89,30.07,10.0,ENE,4.6,-,N/A,,Scattered Clouds,70,2013-08-22 12:33:00
7:51 AM,78.1,73.0,84,30.03,10.0,Calm,Calm,-,N/A,,Scattered Clouds,0,2013-08-22 12:51:00
8:40 AM,80.6,73.4,79,30.09,10.0,ENE,5.8,-,N/A,,Mostly Cloudy,70,2013-08-22 13:40:00
8:51 AM,80.1,73.9,81,30.04,10.0,East,6.9,-,N/A,,Mostly Cloudy,90,2013-08-22 13:51:00
9:51 AM,82.9,73.0,72,30.05,10.0,East,5.8,-,N/A,,Mostly Cloudy,80,2013-08-22 14:51:00
10:15 AM,82.4,71.6,70,30.10,10.0,East,3.5,-,N/A,,Mostly Cloudy,80,2013-08-22 15:15:00
10:27 AM,84.2,73.4,70,30.11,10.0,ENE,4.6,-,N/A,,Mostly Cloudy,60,2013-08-22 15:27:00
10:51 AM,88.0,72.0,59,30.04,10.0,Variable,6.9,-,N/A,,Mostly Cloudy,0,2013-08-22 15:51:00
11:51 AM,87.1,71.1,59,30.04,10.0,Calm,Calm,-,N/A,,Mostly Cloudy,0,2013-08-22 16:51:00
12:51 PM,90.0,70.0,52,30.01,10.0,East,5.8,-,N/A,,Mostly Cloudy,90,2013-08-22 17:51:00
1:51 PM,93.9,69.1,44,29.99,10.0,SSE,9.2,-,N/A,,Mostly Cloudy,160,2013-08-22 18:51:00
2:51 PM,95.0,68.0,41,29.96,10.0,East,6.9,-,N/A,,Mostly Cloudy,80,2013-08-22 19:51:00
3:51 PM,93.9,66.9,41,29.93,10.0,SE,3.5,-,N/A,,Mostly Cloudy,130,2013-08-22 20:51:00
4:51 PM,96.1,66.0,37,29.91,10.0,ESE,11.5,-,N/A,,Mostly Cloudy,120,2013-08-22 21:51:00
5:51 PM,96.1,64.9,36,29.89,10.0,East,6.9,-,N/A,,Mostly Cloudy,100,2013-08-22 22:51:00
6:51 PM,95.0,64.9,37,29.87,10.0,East,4.6,-,N/A,,Scattered Clouds,100,2013-08-22 23:51:00
7:51 PM,93.0,64.9,39,29.89,10.0,East,10.4,-,N/A,,Scattered Clouds,90,2013-08-23 00:51:00
8:51 PM,91.0,66.9,45,29.92,10.0,SSE,8.1,-,N/A,,Mostly Cloudy,160,2013-08-23 01:51:00
9:51 PM,91.0,68.0,47,29.93,10.0,SE,6.9,-,N/A,,Mostly Cloudy,140,2013-08-23 02:51:00
10:51 PM,87.1,70.0,57,29.96,10.0,SE,12.7,-,N/A,,Mostly Cloudy,130,2013-08-23 03:51:00
11:51 PM,84.9,69.1,59,29.96,10.0,SE,10.4,-,N/A,,Mostly Cloudy,140,2013-08-23 04:51:00